[[{"header":{"parameterUnit":"m.s-1","parameterCategory":2,"la1":30.2991,"la2":30.254,"lo1":-89.0895,"lo2":-89.0444,"dy":0.0017,"dx":0.0017,"nx":28,"ny":28,"refTime":"2024-03-16T21:00:00:Z","depth":"0","parameterNumber":2,"parameterNumberName":"U-component_of_CURRENTS"},"data":[0,0,0,0,0,0,0,0,0,0,0,0,0,0,0,0,0,0,0,0,0,0,0,0,0,0,0,0,0,0,0,0,0,0,0,0,0,0,0,0,0,0,0,0,0,0,0,0,0,0,0,0,0,0,0,0,0,0,-0.3589,-0.3589,0,-0.3586,-0.3585,-0.3585,-0.3542,-0.3541,-0.354,-0.3539,-0.351,-0.3511,-0.3511,0,0,0,0,0,0,0,0,0,0,0,0,0,-0.352,-0.3522,-0.3589,-0.3589,-0.3589,-0.3586,-0.3585,-0.3585,-0.3542,-0.3541,-0.354,-0.3539,-0.351,-0.3511,-0.3511,0,0,0,0,0,0,0,0,0,0,0,0,0,-0.3536,-0.3522,-0.3589,-0.3568,-0.3566,-0.3586,-0.3585,-0.3585,-0.3542,-0.3541,-0.3539,-0.3538,-0.351,-0.3511,-0.3511,-0.3541,0,0,-0.3511,-0.3512,0,0,0,0,0,0,0,0,-0.3535,-0.3538,-0.3571,-0.357,-0.3568,-0.3564,-0.3551,-0.357,-0.3543,-0.355,-0.3539,-0.3537,-0.3528,-0.3527,-0.3528,-0.354,-0.3539,-0.3511,-0.3512,-0.3512,-0.3512,0,0,0,0,0,0,0,-0.3534,-0.3538,-0.3586,-0.3571,-0.3569,-0.3546,-0.3547,-0.3554,-0.3546,-0.3549,-0.3546,-0.3549,-0.3526,-0.3528,-0.3527,-0.3538,-0.3511,-0.3512,-0.3512,-0.3512,-0.3535,-0.3536,0,0,0,0,0,0,-0.3541,-0.3537,-0.3586,-0.3586,-0.3549,-0.3549,-0.355,-0.3565,-0.3546,-0.3542,-0.355,-0.3547,-0.3528,-0.3526,-0.3525,-0.3528,-0.3512,-0.3512,-0.3512,-0.3535,-0.3535,-0.3536,0,0,0,0,0,0,-0.354,-0.3546,-0.3586,-0.3561,-0.3565,-0.3552,-0.357,-0.3566,-0.3567,-0.3547,-0.3542,-0.3554,-0.3527,-0.3525,-0.3529,-0.3528,-0.3512,-0.3512,-0.3534,-0.3535,-0.3536,-0.3555,0,0,0,0,0,0,-0.3538,-0.3546,-0.3572,-0.3563,-0.3567,-0.3623,-0.3571,-0.3567,-0.3571,-0.3567,-0.355,-0.3545,-0.3525,-0.3529,-0.353,-0.3528,-0.3512,-0.3534,-0.3535,-0.3535,-0.3553,-0.3556,-0.3558,0,0,0,0,0,-0.3536,-0.3579,-0.3573,-0.358,-0.3599,-0.3625,-0.3626,-0.3609,-0.3573,-0.3598,-0.3564,-0.3546,-0.3535,-0.3531,-0.3531,-0.3529,-0.3533,-0.3534,-0.3535,-0.3552,-0.3555,-0.3558,0,0,0,0,0,0,-0.3583,-0.3578,-0.3572,-0.3617,-0.363,-0.3618,-0.3633,-0.3617,-0.3611,-0.3593,-0.3561,-0.3556,-0.3563,-0.3549,-0.3544,-0.3539,-0.3528,-0.3529,-0.3541,-0.3544,-0.3546,-0.3484,-0.3512,0,0,0,0,0,-0.3602,-0.361,-0.3623,-0.3655,-0.3663,-0.3647,-0.3655,-0.3644,-0.3632,-0.3627,-0.3613,-0.3587,-0.3571,-0.3559,-0.3561,-0.356,-0.351,-0.3557,-0.3559,-0.3561,-0.3511,-0.3437,-0.3427,-0.354,-0.354,-0.354,0,0,-0.3628,-0.3623,-0.3633,-0.3662,-0.3658,-0.3669,-0.3648,-0.3664,-0.3654,-0.3626,-0.3615,-0.3611,-0.3578,-0.3576,-0.3575,-0.3558,-0.3515,-0.3562,-0.3564,-0.3511,-0.3437,-0.3425,-0.3415,-0.354,-0.354,-0.354,0,0,-0.3652,-0.368,-0.3682,-0.3698,-0.3703,-0.3698,-0.3706,-0.3707,-0.3693,-0.3697,-0.3659,-0.3634,-0.3642,-0.359,-0.3565,-0.358,-0.3544,-0.3607,-0.355,-0.3481,-0.347,-0.3459,-0.3427,-0.3413,-0.3591,-0.3591,-0.3591,0,-0.3672,-0.3675,-0.3695,-0.37,-0.3688,-0.3708,-0.3698,-0.3711,-0.3711,-0.367,-0.3698,-0.3631,-0.3626,-0.3546,-0.3553,-0.3578,-0.3551,-0.3543,-0.348,-0.3468,-0.3456,-0.3426,-0.341,-0.3592,-0.3592,-0.3592,-0.3592,0,-0.3678,-0.3692,-0.3698,-0.3688,-0.3703,-0.3704,-0.3714,-0.3716,-0.37,-0.3683,-0.3635,-0.3625,-0.3559,-0.3579,-0.3568,-0.3485,-0.3501,-0.3506,-0.3465,-0.3445,-0.3416,-0.3399,-0.3594,-0.3593,-0.3593,-0.3593,0,0,-0.3641,-0.3685,-0.3677,-0.3647,-0.3679,-0.3666,-0.367,-0.3634,-0.3583,-0.3608,-0.3522,-0.3507,-0.3491,-0.3459,-0.3454,-0.3393,-0.3327,-0.3415,-0.3411,-0.3369,-0.3201,-0.3134,-0.311,-0.3329,-0.3325,-0.3322,-0.3229,0,-0.3604,-0.3587,-0.3627,-0.3592,-0.3565,-0.3587,-0.3578,-0.3558,-0.3549,-0.3503,-0.3462,-0.3421,-0.3453,-0.3423,-0.3368,-0.3348,-0.3276,-0.3352,-0.3235,-0.3231,-0.316,-0.3083,-0.2978,-0.2877,-0.3212,-0.3209,-0.3207,0,-0.3553,-0.353,-0.3492,-0.3469,-0.346,-0.3457,-0.3377,-0.3384,-0.3354,-0.3349,-0.3299,-0.3307,-0.3234,-0.3272,-0.317,-0.3227,-0.319,-0.3172,-0.3168,-0.3066,-0.3128,-0.2942,-0.2833,-0.2817,-0.3181,-0.3183,-0.3185,0,-0.3408,-0.3419,-0.3358,-0.3355,-0.3361,-0.3318,-0.3317,-0.3301,-0.3286,-0.3244,-0.3234,-0.3169,-0.3147,-0.3083,-0.3084,-0.3118,-0.2978,-0.3022,-0.2911,-0.291,-0.2766,-0.2756,-0.2596,-0.2885,-0.2885,-0.2885,-0.2886,0,-0.3305,-0.3257,-0.3281,-0.3231,-0.3146,-0.3197,-0.3124,-0.3121,-0.3131,-0.3099,-0.314,-0.31,-0.3099,-0.3054,-0.303,-0.292,-0.293,-0.285,-0.2847,-0.2779,-0.2771,-0.2708,-0.2755,-0.2882,-0.2883,-0.2883,-0.2884,0,-0.3145,-0.3189,-0.3097,-0.3072,-0.3072,-0.2995,-0.3034,-0.3,-0.3039,-0.3,-0.2993,-0.3032,-0.298,-0.2973,-0.2885,-0.2847,-0.2699,-0.2704,-0.2645,-0.2634,-0.25,-0.2555,-0.2365,-0.2297,-0.2541,-0.2539,-0.2536,0,-0.306,-0.2986,-0.2938,-0.291,-0.2898,-0.2851,-0.2845,-0.2912,-0.2908,-0.2946,-0.2911,-0.2896,-0.2852,-0.2736,-0.265,-0.2549,-0.2575,-0.2398,-0.2404,-0.2417,-0.2478,-0.2528,-0.249,-0.2257,-0.2253,-0.2249,-0.2247,0,-0.2827,-0.2812,-0.2749,-0.2696,-0.2674,-0.2659,-0.2664,-0.2664,-0.2745,-0.2749,-0.2735,-0.2712,-0.2631,-0.2491,-0.2392,-0.2321,-0.2342,-0.2318,-0.2318,-0.2193,-0.2244,-0.2206,-0.245,-0.2214,-0.2218,-0.222,-0.2222,-0.2223,-0.2638,-0.2557,-0.25,-0.2449,-0.2453,-0.2444,-0.239,-0.2455,-0.2444,-0.2433,-0.2506,-0.2444,-0.2382,-0.2218,-0.2141,-0.1991,-0.2078,-0.1944,-0.2001,-0.2045,-0.1971,-0.2152,-0.1926,-0.1928,-0.1929,-0.193,-0.1931,0,-0.238,-0.234,-0.2275,-0.2219,-0.2172,-0.2242,-0.2248,-0.2208,-0.2169,-0.2207,-0.2184,-0.2127,-0.1994,-0.195,-0.1814,-0.1719,-0.1687,-0.1693,-0.1737,-0.1706,-0.1826,-0.1804,-0.1555,-0.1555,-0.1555,-0.1555,-0.1555,-0.1555,-0.2252,-0.2113,-0.21,-0.195,-0.1934,-0.1822,-0.1799,-0.1802,-0.1813,-0.1758,-0.175,-0.1771,-0.1776,-0.1871,-0.1725,-0.163,-0.1605,-0.1551,-0.159,-0.1707,-0.1736,-0.1764,-0.1749,-0.1493,-0.1493,-0.1393,-0.1393,-0.1392]},{"header":{"parameterUnit":"m.s-1","parameterCategory":2,"la1":30.2991,"la2":30.254,"lo1":-89.0895,"lo2":-89.0444,"dy":0.0017,"dx":0.0017,"nx":28,"ny":28,"refTime":"2024-03-16T21:00:00:Z","depth":"0","parameterNumber":3,"parameterNumberName":"V-component_of_CURRENTS"},"data":[0,0,0,0,0,0,0,0,0,0,0,0,0,0,0,0,0,0,0,0,0,0,0,0,0,0,0,0,0,0,0,0,0,0,0,0,0,0,0,0,0,0,0,0,0,0,0,0,0,0,0,0,0,0,0,0,0,0,-0.0254,-0.0252,0,-0.011,-0.0108,-0.0107,-0.0014,-0.0014,-0.0014,-0.0013,0.0184,0.0189,0.0193,0,0,0,0,0,0,0,0,0,0,0,0,0,-0.0385,-0.0383,-0.0254,-0.0252,-0.025,-0.011,-0.0108,-0.0106,-0.0015,-0.0014,-0.0014,-0.0013,0.0182,0.0188,0.0194,0,0,0,0,0,0,0,0,0,0,0,0,0,-0.0292,-0.0383,-0.0254,-0.0189,-0.0182,-0.0111,-0.0108,-0.0105,-0.0015,-0.0014,-0.0013,-0.0013,0.018,0.0188,0.0195,0.0227,0,0,0.0217,0.022,0,0,0,0,0,0,0,0,-0.0298,-0.0287,-0.02,-0.0193,-0.0185,-0.0081,-0.0082,0.0008,-0.0015,-0.0077,-0.0013,-0.0013,0.0099,0.0113,0.014,0.0236,0.0245,0.0218,0.0222,0.0225,0.0227,0,0,0,0,0,0,0,-0.0304,-0.0293,-0.0195,-0.0198,-0.0189,-0.0145,-0.0132,-0.0064,0.0008,-0.0071,-0.0064,-0.0051,0.0104,0.0133,0.0145,0.0248,0.0217,0.0224,0.0228,0.0231,0.0393,0.0393,0,0,0,0,0,0,-0.0329,-0.0299,-0.02,-0.0191,-0.0243,-0.0144,-0.0128,-0.0114,0.0006,0.0024,-0.0052,-0.0047,0.012,0.0137,0.0153,0.0192,0.0225,0.0232,0.0236,0.0393,0.0393,0.0393,0,0,0,0,0,0,-0.0332,-0.0321,-0.0206,-0.0243,-0.0225,-0.0143,-0.0126,-0.0111,-0.0081,0.002,0.004,-0.0038,0.0121,0.0142,0.0207,0.0201,0.0235,0.0242,0.0394,0.0393,0.0393,0.0275,0,0,0,0,0,0,-0.0337,-0.0323,-0.0323,-0.0245,-0.0224,-0.0166,-0.0127,-0.0109,-0.0075,-0.0067,0.0039,0.0058,0.0123,0.0196,0.0214,0.0211,0.0248,0.0394,0.0394,0.0393,0.0279,0.0271,0.0264,0,0,0,0,0,-0.0342,-0.0345,-0.0323,-0.0311,-0.0225,-0.0167,-0.0152,-0.009,-0.0075,-0.0061,0.0003,0.0054,0.0208,0.0201,0.0223,0.0222,0.0394,0.0394,0.0393,0.0282,0.0272,0.0264,0,0,0,0,0,0,-0.04,-0.0333,-0.0309,-0.0291,-0.0235,-0.0152,-0.0138,-0.0099,-0.0037,-0.0034,0.0056,0.008,0.0136,0.0195,0.0185,0.027,0.0309,0.0313,0.0217,0.0208,0.0201,0.0172,0.0254,0,0,0,0,0,-0.0415,-0.0401,-0.0327,-0.0314,-0.0293,-0.022,-0.0191,-0.0148,-0.0084,-0.0057,0.0017,0.0091,0.0153,0.0191,0.0261,0.0306,0.0356,0.032,0.0312,0.0305,0.0297,0.035,0.0346,0.0393,0.0393,0.0393,0,0,-0.0434,-0.0398,-0.0388,-0.0327,-0.0283,-0.026,-0.02,-0.0163,-0.0142,-0.0045,0.0002,0.007,0.0159,0.021,0.024,0.0258,0.0321,0.0305,0.0298,0.0294,0.035,0.0345,0.0341,0.0393,0.0393,0.0393,0,0,-0.0475,-0.0435,-0.0441,-0.0401,-0.0343,-0.0294,-0.0289,-0.0208,-0.017,-0.0117,-0.0049,0.0006,0.0114,0.0168,0.0209,0.0201,0.0279,0.0231,0.017,0.0221,0.0217,0.0214,0.0274,0.0278,0.0225,0.0225,0.0225,0,-0.0506,-0.0499,-0.0433,-0.0429,-0.0408,-0.0319,-0.0321,-0.0267,-0.0175,-0.0151,-0.0116,0.0016,0.0089,0.0138,0.0137,0.0182,0.023,0.0191,0.0208,0.0206,0.0205,0.0268,0.0274,0.0219,0.022,0.0221,0.0221,0,-0.0552,-0.0543,-0.0544,-0.0512,-0.0476,-0.0462,-0.0384,-0.0346,-0.0293,-0.0236,-0.0171,-0.0074,0.0002,0.0034,0.0086,0.0116,0.0158,0.0189,0.0221,0.0193,0.0262,0.027,0.0211,0.0213,0.0215,0.0216,0,0,-0.0635,-0.0588,-0.0592,-0.0588,-0.0522,-0.0497,-0.0468,-0.0413,-0.0397,-0.0307,-0.028,-0.0182,-0.0127,-0.0078,-0.0004,0.0041,0.0078,0.0104,0.011,0.0148,0.0201,0.0282,0.0299,0.0111,0.0111,0.0112,0.0252,0,-0.0698,-0.0718,-0.0673,-0.0682,-0.068,-0.0598,-0.0576,-0.0513,-0.0444,-0.0388,-0.0295,-0.023,-0.0168,-0.0131,-0.0082,0.005,0.0093,0.0038,0.0239,0.0245,0.0306,0.0309,0.0356,0.049,0.026,0.0262,0.0263,0,-0.0771,-0.0768,-0.0797,-0.0761,-0.0754,-0.0744,-0.0694,-0.0659,-0.0562,-0.0508,-0.0438,-0.0342,-0.0254,-0.0199,-0.0024,-0.006,0.0052,0.0147,0.0155,0.0276,0.034,0.0485,0.0513,0.069,0.0275,0.0274,0.0273,0,-0.0868,-0.086,-0.0888,-0.0875,-0.0818,-0.0818,-0.0787,-0.0706,-0.0671,-0.058,-0.0541,-0.0423,-0.034,-0.0208,0.0,-0.0011,0.0205,0.0216,0.0388,0.0396,0.05,0.0516,0.0709,0.032,0.0319,0.0319,0.0319,0,-0.0957,-0.0975,-0.0936,-0.0944,-0.0965,-0.0901,-0.0904,-0.0851,-0.0774,-0.0728,-0.0613,-0.0537,-0.0337,-0.0175,-0.0018,0.0226,0.0194,0.0383,0.0437,0.0463,0.0473,0.0683,0.0743,0.0324,0.0323,0.0322,0.0321,0,-0.1051,-0.1033,-0.1051,-0.1015,-0.1009,-0.1022,-0.0975,-0.0967,-0.0889,-0.0824,-0.0794,-0.0605,-0.0382,-0.017,0.0088,0.0224,0.0557,0.0521,0.0546,0.0601,0.0908,0.0958,0.1199,0.1318,0.0721,0.0724,0.0726,0,-0.11,-0.1118,-0.1107,-0.1121,-0.1108,-0.1111,-0.111,-0.1037,-0.1005,-0.0848,-0.0813,-0.0588,-0.0394,0.0009,0.0294,0.059,0.0706,0.0792,0.0771,0.0942,0.1038,0.1063,0.1147,0.0867,0.087,0.0873,0.0875,0,-0.1164,-0.116,-0.1168,-0.1198,-0.1213,-0.1222,-0.1201,-0.1185,-0.1075,-0.0989,-0.0803,-0.0633,-0.0222,0.0169,0.055,0.0715,0.0934,0.0858,0.1031,0.1167,0.1212,0.1347,0.076,0.0899,0.0897,0.0895,0.0894,0.0893,-0.12,-0.1225,-0.1233,-0.1262,-0.1288,-0.1299,-0.1285,-0.1218,-0.1137,-0.0918,-0.0792,-0.0464,0.0056,0.0619,0.0822,0.124,0.1171,0.1344,0.1391,0.1402,0.1517,0.099,0.119,0.119,0.1189,0.1188,0.1188,0,-0.1229,-0.1249,-0.1287,-0.1316,-0.1351,-0.1346,-0.1314,-0.1233,-0.1098,-0.084,-0.0614,-0.0024,0.0492,0.0962,0.1523,0.1751,0.1793,0.185,0.1892,0.1954,0.1496,0.1504,0.1787,0.1787,0.1787,0.1786,0.1786,0.1786,-0.1244,-0.1281,-0.1298,-0.135,-0.1372,-0.1368,-0.1337,-0.1168,-0.0954,-0.0459,-0.008,0.0201,0.0792,0.164,0.216,0.2205,0.2408,0.2381,0.2495,0.2167,0.2123,0.208,0.2104,0.2508,0.2509,0.2943,0.2948,0.2951]}],[{"header":{"parameterUnit":"m.s-1","parameterCategory":2,"la1":30.2991,"la2":30.254,"lo1":-89.0895,"lo2":-89.0444,"dy":0.0017,"dx":0.0017,"nx":28,"ny":28,"refTime":"2024-03-16T21:00:00:Z","depth":"2","parameterNumber":2,"parameterNumberName":"U-component_of_CURRENTS"},"data":[0,0,0,0,0,0,0,0,0,0,0,0,0,0,0,0,0,0,0,0,0,0,0,0,0,0,0,0,0,0,0,0,0,0,0,0,0,0,0,0,0,0,0,0,0,0,0,0,0,0,0,0,0,0,0,0,0,0,-0.254,-0.2541,0,-0.2599,-0.26,-0.2601,-0.2588,-0.2587,-0.2586,-0.2585,-0.2602,-0.2604,-0.2605,0,0,0,0,0,0,0,0,0,0,0,0,0,-0.2433,-0.2435,-0.254,-0.2541,-0.2542,-0.2599,-0.26,-0.2601,-0.2588,-0.2587,-0.2585,-0.2584,-0.2602,-0.2603,-0.2605,0,0,0,0,0,0,0,0,0,0,0,0,0,-0.2484,-0.2435,-0.254,-0.2543,-0.2544,-0.2599,-0.26,-0.2601,-0.2588,-0.2587,-0.2585,-0.2584,-0.2601,-0.2603,-0.2605,-0.2649,0,0,-0.2612,-0.2613,0,0,0,0,0,0,0,0,-0.2481,-0.2487,-0.2542,-0.2543,-0.2544,-0.2585,-0.2569,-0.2615,-0.2588,-0.257,-0.2585,-0.2583,-0.2594,-0.2597,-0.2611,-0.265,-0.2651,-0.2612,-0.2613,-0.2614,-0.2615,0,0,0,0,0,0,0,-0.2477,-0.2485,-0.2563,-0.2543,-0.2544,-0.2547,-0.2552,-0.2578,-0.2589,-0.2572,-0.2571,-0.258,-0.2594,-0.2609,-0.2611,-0.2651,-0.2612,-0.2614,-0.2615,-0.2616,-0.2702,-0.2703,0,0,0,0,0,0,-0.2473,-0.2482,-0.2561,-0.2565,-0.2509,-0.255,-0.2556,-0.2573,-0.259,-0.2591,-0.2581,-0.2579,-0.2606,-0.2609,-0.2612,-0.2648,-0.2614,-0.2616,-0.2618,-0.2701,-0.2703,-0.2704,0,0,0,0,0,0,-0.2471,-0.248,-0.2558,-0.2524,-0.2535,-0.2554,-0.2573,-0.2575,-0.2594,-0.2597,-0.2597,-0.2598,-0.2605,-0.2609,-0.2635,-0.2648,-0.2617,-0.2619,-0.27,-0.2702,-0.2703,-0.273,0,0,0,0,0,0,-0.2468,-0.2479,-0.2489,-0.2525,-0.2537,-0.2594,-0.2574,-0.2577,-0.2601,-0.2599,-0.2612,-0.2612,-0.2604,-0.2632,-0.2637,-0.2651,-0.2621,-0.2699,-0.2701,-0.2703,-0.2728,-0.2733,-0.2736,0,0,0,0,0,-0.2464,-0.2492,-0.2489,-0.2498,-0.255,-0.2596,-0.2603,-0.2609,-0.2604,-0.2619,-0.2623,-0.2611,-0.2647,-0.2635,-0.264,-0.2655,-0.2698,-0.27,-0.2702,-0.2726,-0.2732,-0.2736,0,0,0,0,0,0,-0.2449,-0.2495,-0.2492,-0.2531,-0.2558,-0.2594,-0.2615,-0.2621,-0.264,-0.2638,-0.2633,-0.2634,-0.266,-0.2661,-0.2647,-0.2686,-0.2668,-0.2672,-0.2684,-0.2689,-0.2693,-0.2684,-0.2623,0,0,0,0,0,-0.2451,-0.2483,-0.2519,-0.2548,-0.2567,-0.2593,-0.2612,-0.2621,-0.2644,-0.2651,-0.2656,-0.2664,-0.2677,-0.2684,-0.2697,-0.2728,-0.2702,-0.2739,-0.2743,-0.2746,-0.2743,-0.2715,-0.2716,-0.2711,-0.2711,-0.2711,0,0,-0.2445,-0.2481,-0.2492,-0.2546,-0.2571,-0.2604,-0.2601,-0.2642,-0.2661,-0.2652,-0.2679,-0.2685,-0.269,-0.2715,-0.2726,-0.2714,-0.2735,-0.2749,-0.2752,-0.2747,-0.2718,-0.2718,-0.2718,-0.2713,-0.2712,-0.2712,0,0,-0.2462,-0.2492,-0.2522,-0.2554,-0.2601,-0.2623,-0.2638,-0.2678,-0.2687,-0.2726,-0.2712,-0.2723,-0.276,-0.2749,-0.2753,-0.2793,-0.2761,-0.2802,-0.2813,-0.2786,-0.2786,-0.2785,-0.2752,-0.2748,-0.28,-0.28,-0.28,0,-0.2452,-0.2497,-0.2535,-0.2577,-0.2602,-0.2633,-0.2665,-0.269,-0.2727,-0.2733,-0.2739,-0.2769,-0.2774,-0.2782,-0.2791,-0.2801,-0.2777,-0.2792,-0.2789,-0.2788,-0.2787,-0.2753,-0.2748,-0.2801,-0.2801,-0.2801,-0.2801,0,-0.2487,-0.2523,-0.2552,-0.2608,-0.264,-0.2681,-0.2718,-0.2744,-0.2766,-0.278,-0.2804,-0.2812,-0.2819,-0.2828,-0.2827,-0.2821,-0.2805,-0.2799,-0.2772,-0.2789,-0.2753,-0.2747,-0.2804,-0.2803,-0.2803,-0.2802,0,0,-0.2458,-0.2555,-0.2561,-0.2586,-0.2662,-0.2689,-0.2734,-0.2772,-0.2785,-0.2822,-0.2828,-0.2859,-0.2852,-0.2855,-0.2846,-0.2829,-0.2803,-0.2813,-0.2811,-0.2771,-0.2736,-0.2647,-0.2632,-0.2794,-0.2793,-0.2793,-0.2714,0,-0.2468,-0.254,-0.2589,-0.264,-0.2675,-0.2722,-0.2754,-0.2789,-0.282,-0.2834,-0.2843,-0.2853,-0.2864,-0.2861,-0.285,-0.2817,-0.2791,-0.2825,-0.2734,-0.2731,-0.2642,-0.2624,-0.2449,-0.2357,-0.2708,-0.2707,-0.2706,0,-0.2475,-0.2525,-0.2579,-0.265,-0.2669,-0.27,-0.2748,-0.2781,-0.2814,-0.2834,-0.2849,-0.2854,-0.2845,-0.2846,-0.28,-0.2821,-0.278,-0.2754,-0.275,-0.2651,-0.2631,-0.2398,-0.2334,-0.2697,-0.2697,-0.2698,-0.2699,0,-0.2421,-0.2512,-0.2552,-0.2579,-0.2664,-0.2685,-0.2724,-0.277,-0.2789,-0.2817,-0.2829,-0.2832,-0.2824,-0.279,-0.2757,-0.2772,-0.2691,-0.27,-0.2578,-0.2572,-0.2396,-0.2374,-0.2647,-0.2647,-0.2647,-0.2648,-0.2648,0,-0.2408,-0.2433,-0.2527,-0.2545,-0.2572,-0.2647,-0.2669,-0.271,-0.2754,-0.2754,-0.281,-0.2797,-0.281,-0.2776,-0.2741,-0.2637,-0.2675,-0.2565,-0.2539,-0.2401,-0.2382,-0.266,-0.2663,-0.2645,-0.2645,-0.2646,-0.2646,0,-0.2325,-0.2399,-0.2437,-0.2524,-0.2545,-0.2556,-0.2628,-0.2639,-0.2705,-0.2704,-0.2709,-0.2759,-0.2714,-0.2709,-0.2644,-0.2599,-0.2518,-0.2469,-0.2307,-0.2262,-0.2421,-0.2427,-0.2318,-0.2314,-0.2311,-0.2308,-0.2306,0,-0.2284,-0.2301,-0.2387,-0.2396,-0.243,-0.2468,-0.2485,-0.2581,-0.2596,-0.2658,-0.2638,-0.2637,-0.259,-0.249,-0.2403,-0.2304,-0.2404,-0.2097,-0.2091,-0.2399,-0.2384,-0.2395,-0.2405,-0.1871,-0.1865,-0.186,-0.1857,0,-0.2183,-0.2221,-0.2249,-0.2274,-0.2297,-0.2324,-0.2365,-0.2379,-0.247,-0.2484,-0.2471,-0.2445,-0.2369,-0.219,-0.2095,-0.202,-0.2104,-0.1997,-0.2335,-0.1989,-0.1972,-0.1961,-0.1985,-0.1815,-0.1819,-0.1822,-0.1824,-0.1826,-0.2082,-0.2075,-0.2113,-0.212,-0.2152,-0.2153,-0.2121,-0.2179,-0.2179,-0.2155,-0.2232,-0.2125,-0.211,-0.1852,-0.1744,-0.1663,-0.181,-0.174,-0.1756,-0.1777,-0.1747,-0.1726,-0.1516,-0.1519,-0.1521,-0.1523,-0.1524,0,-0.1934,-0.1947,-0.1953,-0.1957,-0.1927,-0.1996,-0.2007,-0.1943,-0.1888,-0.1893,-0.1852,-0.1646,-0.153,-0.1516,-0.1318,-0.1281,-0.1287,-0.1235,-0.1252,-0.1293,-0.133,-0.128,-0.0924,-0.0922,-0.092,-0.0919,0,0,-0.1854,-0.181,-0.1819,-0.172,-0.1722,-0.1624,-0.1596,-0.1534,-0.1501,-0.139,-0.1328,-0.1418,-0.1456,-0.1186,-0.1128,-0.0989,-0.1128,-0.0936,-0.1417,-0.1476,-0.1511,-0.1619,-0.1588,0,0,0,0,0]},{"header":{"parameterUnit":"m.s-1","parameterCategory":2,"la1":30.2991,"la2":30.254,"lo1":-89.0895,"lo2":-89.0444,"dy":0.0017,"dx":0.0017,"nx":28,"ny":28,"refTime":"2024-03-16T21:00:00:Z","depth":"2","parameterNumber":3,"parameterNumberName":"V-component_of_CURRENTS"},"data":[0,0,0,0,0,0,0,0,0,0,0,0,0,0,0,0,0,0,0,0,0,0,0,0,0,0,0,0,0,0,0,0,0,0,0,0,0,0,0,0,0,0,0,0,0,0,0,0,0,0,0,0,0,0,0,0,0,0,-0.044,-0.044,0,-0.0343,-0.0342,-0.0341,-0.0276,-0.0275,-0.0275,-0.0274,-0.0124,-0.0121,-0.0117,0,0,0,0,0,0,0,0,0,0,0,0,0,-0.0493,-0.0493,-0.0441,-0.0439,-0.0438,-0.0343,-0.0342,-0.034,-0.0276,-0.0275,-0.0275,-0.0274,-0.0125,-0.0121,-0.0117,0,0,0,0,0,0,0,0,0,0,0,0,0,-0.044,-0.0492,-0.0441,-0.0395,-0.039,-0.0344,-0.0342,-0.034,-0.0276,-0.0275,-0.0275,-0.0274,-0.0127,-0.0121,-0.0116,-0.0093,0,0,-0.0099,-0.0097,0,0,0,0,0,0,0,0,-0.0443,-0.0438,-0.0403,-0.0398,-0.0393,-0.0322,-0.0305,-0.0255,-0.0276,-0.0318,-0.0274,-0.0274,-0.0186,-0.0176,-0.0158,-0.0086,-0.0079,-0.0099,-0.0095,-0.0093,-0.0092,0,0,0,0,0,0,0,-0.0447,-0.0441,-0.0401,-0.0402,-0.0396,-0.0353,-0.0345,-0.0295,-0.0255,-0.0314,-0.031,-0.0301,-0.0183,-0.0164,-0.0154,-0.0077,-0.0099,-0.0094,-0.0091,-0.0088,0.0034,0.0034,0,0,0,0,0,0,-0.0465,-0.0445,-0.0404,-0.0398,-0.0418,-0.0353,-0.0344,-0.0344,-0.0256,-0.0243,-0.0301,-0.0298,-0.0173,-0.0161,-0.0148,-0.0108,-0.0093,-0.0088,-0.0085,0.0034,0.0034,0.0034,0,0,0,0,0,0,-0.0467,-0.0463,-0.0408,-0.0419,-0.0409,-0.0353,-0.0353,-0.0343,-0.0322,-0.0247,-0.0232,-0.0291,-0.0172,-0.0156,-0.0108,-0.0102,-0.0085,-0.008,0.0034,0.0034,0.0034,-0.0031,0,0,0,0,0,0,-0.0469,-0.0464,-0.0472,-0.0421,-0.041,-0.0389,-0.0353,-0.0341,-0.0317,-0.0312,-0.0233,-0.0219,-0.0171,-0.0117,-0.0103,-0.0094,-0.0076,0.0034,0.0034,0.0034,-0.0029,-0.0034,-0.0037,0,0,0,0,0,-0.0471,-0.0487,-0.0474,-0.0468,-0.0422,-0.0389,-0.038,-0.0336,-0.0318,-0.0314,-0.0261,-0.0221,-0.0107,-0.0112,-0.0096,-0.0085,0.0034,0.0034,0.0034,-0.0027,-0.0033,-0.0037,0,0,0,0,0,0,-0.0516,-0.0481,-0.0465,-0.047,-0.0436,-0.0379,-0.0372,-0.0342,-0.0297,-0.0292,-0.0221,-0.0203,-0.016,-0.0116,-0.0124,-0.0051,-0.003,-0.0027,-0.0082,-0.0086,-0.0091,-0.0098,-0.0072,0,0,0,0,0,-0.0531,-0.0534,-0.0488,-0.0494,-0.0479,-0.0427,-0.0409,-0.038,-0.0333,-0.0313,-0.0259,-0.02,-0.0148,-0.0114,-0.0066,-0.0024,0.0023,-0.0007,-0.0011,-0.0015,-0.001,0.0059,0.0061,0.0034,0.0034,0.0034,0,0,-0.0547,-0.0532,-0.0531,-0.0504,-0.0474,-0.0457,-0.0415,-0.0393,-0.0374,-0.0303,-0.0265,-0.0216,-0.0142,-0.0099,-0.0074,-0.0059,0.0015,-0.0015,-0.0019,-0.0011,0.0059,0.0062,0.0064,0.0034,0.0034,0.0034,0,0,-0.0584,-0.0571,-0.0581,-0.0557,-0.0522,-0.0487,-0.0484,-0.043,-0.04,-0.0359,-0.0305,-0.0251,-0.0176,-0.0118,-0.0078,-0.0075,-0.0015,-0.0065,-0.008,-0.0015,-0.0012,-0.0008,0.0042,0.0051,-0.0059,-0.0059,-0.0059,0,-0.0607,-0.0612,-0.0578,-0.0579,-0.0562,-0.0505,-0.0502,-0.0463,-0.04,-0.0372,-0.0357,-0.0238,-0.018,-0.0108,-0.0108,-0.0082,-0.0044,-0.0069,-0.002,-0.0016,-0.0011,0.004,0.005,-0.0062,-0.0062,-0.0062,-0.0061,0,-0.0643,-0.0644,-0.0648,-0.0629,-0.0607,-0.0598,-0.054,-0.0513,-0.0471,-0.0423,-0.0355,-0.0277,-0.0203,-0.0178,-0.0138,-0.0077,-0.0062,-0.0041,-0.001,-0.0012,0.0042,0.0054,-0.0067,-0.0066,-0.0065,-0.0064,0,0,-0.0702,-0.0679,-0.0681,-0.0676,-0.0632,-0.0618,-0.0585,-0.0531,-0.0505,-0.0438,-0.0392,-0.0299,-0.0255,-0.0209,-0.015,-0.0088,-0.0027,-0.0057,-0.0052,-0.0012,0.0107,0.0142,0.0158,-0.0002,0.0,0.0002,0.0128,0,-0.0738,-0.0758,-0.0728,-0.073,-0.0727,-0.0667,-0.064,-0.0584,-0.0526,-0.0469,-0.0372,-0.0311,-0.0267,-0.0233,-0.0164,-0.0061,0.0002,-0.0063,0.0108,0.0113,0.0142,0.0173,0.0137,0.0249,0.0139,0.0141,0.0143,0,-0.0782,-0.0786,-0.0803,-0.0774,-0.0766,-0.0758,-0.0702,-0.067,-0.0572,-0.0525,-0.0443,-0.0368,-0.0262,-0.023,-0.0051,-0.0099,-0.0003,0.0077,0.0084,0.0151,0.0171,0.0238,0.0275,0.0163,0.0161,0.016,0.0159,0,-0.0842,-0.0835,-0.0854,-0.0846,-0.0806,-0.0797,-0.077,-0.0691,-0.0658,-0.0561,-0.0526,-0.0392,-0.0319,-0.0186,-0.0021,-0.0035,0.0174,0.0179,0.0303,0.0306,0.033,0.0332,0.0308,0.0308,0.0308,0.0308,0.0307,0,-0.0895,-0.0906,-0.0888,-0.0897,-0.0908,-0.0857,-0.0848,-0.0798,-0.0722,-0.0678,-0.0566,-0.0497,-0.0304,-0.016,-0.0024,0.0181,0.0178,0.0314,0.0351,0.0304,0.0303,0.0271,0.0265,0.0312,0.0311,0.031,0.031,0,-0.0958,-0.0948,-0.0966,-0.0944,-0.0941,-0.0951,-0.0913,-0.0897,-0.0823,-0.0763,-0.0733,-0.0559,-0.0365,-0.0172,0.0067,0.0184,0.0368,0.0439,0.0366,0.0392,0.0452,0.0441,0.059,0.0593,0.0595,0.0596,0.0598,0,-0.0992,-0.101,-0.1016,-0.1034,-0.103,-0.1033,-0.1029,-0.096,-0.093,-0.0793,-0.0761,-0.0564,-0.0401,-0.0048,0.0194,0.045,0.0442,0.0558,0.0537,0.0466,0.0486,0.0472,0.0458,0.0536,0.0537,0.0537,0.0538,0,-0.1045,-0.1052,-0.1068,-0.1107,-0.1123,-0.1132,-0.1113,-0.1098,-0.0999,-0.0924,-0.077,-0.0628,-0.0285,0.0013,0.0335,0.0469,0.0512,0.0582,0.0552,0.0465,0.0424,0.044,0.0427,0.0544,0.0544,0.0543,0.0543,0.0542,-0.1082,-0.1114,-0.1137,-0.1171,-0.1196,-0.1206,-0.1196,-0.114,-0.1072,-0.0909,-0.0782,-0.0539,-0.0265,0.021,0.043,0.0623,0.0615,0.0658,0.0652,0.0646,0.0613,0.0577,0.0719,0.072,0.072,0.072,0.072,0,-0.1117,-0.1148,-0.1191,-0.1229,-0.1261,-0.1256,-0.1227,-0.1174,-0.107,-0.0889,-0.0707,-0.04,-0.0067,0.0206,0.0529,0.072,0.0685,0.0734,0.0653,0.0646,0.064,0.0603,0.0709,0.0709,0.071,0.0711,0,0,-0.1136,-0.1186,-0.1207,-0.1267,-0.1291,-0.1294,-0.1268,-0.1157,-0.101,-0.0807,-0.0613,-0.0364,-0.004,0.0188,0.0417,0.0581,0.056,0.0584,0.0572,0.0442,0.0434,0.0574,0.0507,0,0,0,0,0]}],[{"header":{"parameterUnit":"m.s-1","parameterCategory":2,"la1":30.2991,"la2":30.254,"lo1":-89.0895,"lo2":-89.0444,"dy":0.0017,"dx":0.0017,"nx":28,"ny":28,"refTime":"2024-03-16T21:00:00:Z","depth":"4","parameterNumber":2,"parameterNumberName":"U-component_of_CURRENTS"},"data":[0,0,0,0,0,0,0,0,0,0,0,0,0,0,0,0,0,0,0,0,0,0,0,0,0,0,0,0,0,0,0,0,0,0,0,0,0,0,0,0,0,0,0,0,0,0,0,0,0,0,0,0,0,0,0,0,0,0,-0.1654,-0.1655,0,-0.1732,-0.1732,-0.1733,-0.177,-0.177,-0.177,-0.177,-0.1855,-0.1857,-0.1859,0,0,0,0,0,0,0,0,0,0,0,0,0,-0.1537,-0.1539,-0.1654,-0.1655,-0.1656,-0.1731,-0.1732,-0.1733,-0.177,-0.177,-0.177,-0.177,-0.1854,-0.1857,-0.1859,0,0,0,0,0,0,0,0,0,0,0,0,0,-0.1597,-0.154,-0.1654,-0.1685,-0.1688,-0.1731,-0.1732,-0.1734,-0.177,-0.177,-0.177,-0.177,-0.1853,-0.1856,-0.186,-0.1877,0,0,-0.187,-0.1871,0,0,0,0,0,0,0,0,-0.1594,-0.1601,-0.1679,-0.1683,-0.1687,-0.1742,-0.1722,-0.1782,-0.177,-0.1737,-0.177,-0.177,-0.1819,-0.1825,-0.1837,-0.1881,-0.1885,-0.187,-0.1872,-0.1873,-0.1874,0,0,0,0,0,0,0,-0.1589,-0.1598,-0.1683,-0.168,-0.1685,-0.1694,-0.1703,-0.1734,-0.1775,-0.174,-0.1743,-0.1754,-0.1821,-0.1834,-0.1839,-0.1886,-0.187,-0.1873,-0.1875,-0.1876,-0.2005,-0.2006,0,0,0,0,0,0,-0.1583,-0.1594,-0.1681,-0.1686,-0.1641,-0.1696,-0.1706,-0.1723,-0.1775,-0.1783,-0.1754,-0.1756,-0.1828,-0.1835,-0.1842,-0.1929,-0.1873,-0.1876,-0.1878,-0.2003,-0.2005,-0.2006,0,0,0,0,0,0,-0.158,-0.159,-0.1678,-0.1642,-0.1654,-0.1699,-0.1718,-0.1725,-0.1766,-0.1786,-0.1794,-0.1791,-0.1828,-0.1838,-0.1895,-0.193,-0.1878,-0.1881,-0.2001,-0.2004,-0.2006,-0.2061,0,0,0,0,0,0,-0.1577,-0.1589,-0.1612,-0.1642,-0.1656,-0.1718,-0.1718,-0.1726,-0.1771,-0.1775,-0.182,-0.1826,-0.1829,-0.189,-0.1898,-0.1933,-0.1883,-0.1999,-0.2002,-0.2005,-0.2058,-0.2065,-0.2072,0,0,0,0,0,-0.1572,-0.1595,-0.1612,-0.1623,-0.1682,-0.172,-0.1728,-0.1758,-0.1773,-0.1795,-0.1829,-0.1826,-0.1913,-0.1895,-0.1904,-0.194,-0.1998,-0.2002,-0.2005,-0.2055,-0.2064,-0.2072,0,0,0,0,0,0,-0.1554,-0.1603,-0.1621,-0.1659,-0.1695,-0.1727,-0.1754,-0.1777,-0.1822,-0.1835,-0.1851,-0.186,-0.1918,-0.1924,-0.1904,-0.1984,-0.1953,-0.1958,-0.1988,-0.1997,-0.2004,-0.2008,-0.1886,0,0,0,0,0,-0.1562,-0.1595,-0.1637,-0.1669,-0.1691,-0.1731,-0.1756,-0.178,-0.1817,-0.1838,-0.1871,-0.1904,-0.1935,-0.1963,-0.1986,-0.204,-0.2021,-0.2067,-0.2074,-0.208,-0.209,-0.2093,-0.2101,-0.2017,-0.2017,-0.2017,0,0,-0.1563,-0.1595,-0.1614,-0.1668,-0.1701,-0.1742,-0.1747,-0.1795,-0.1837,-0.1841,-0.1914,-0.1932,-0.1953,-0.2006,-0.2033,-0.2021,-0.209,-0.2084,-0.2089,-0.2096,-0.2097,-0.2105,-0.2112,-0.2019,-0.2019,-0.2019,0,0,-0.1577,-0.1614,-0.1648,-0.1684,-0.1742,-0.1767,-0.1788,-0.1842,-0.1877,-0.1943,-0.1952,-0.1996,-0.2051,-0.2071,-0.2087,-0.215,-0.2122,-0.2159,-0.2208,-0.2212,-0.2218,-0.2224,-0.2191,-0.2194,-0.2169,-0.2169,-0.2169,0,-0.158,-0.163,-0.1663,-0.1706,-0.1743,-0.1783,-0.183,-0.1869,-0.1937,-0.1972,-0.1975,-0.2062,-0.2081,-0.2141,-0.2163,-0.2168,-0.215,-0.2174,-0.222,-0.2225,-0.223,-0.2195,-0.2197,-0.2172,-0.2171,-0.2171,-0.2171,0,-0.1614,-0.1667,-0.169,-0.176,-0.1802,-0.1848,-0.1904,-0.1958,-0.2004,-0.204,-0.2117,-0.2143,-0.2192,-0.2206,-0.2209,-0.2262,-0.223,-0.2221,-0.2196,-0.2242,-0.2202,-0.2203,-0.2176,-0.2175,-0.2174,-0.2173,0,0,-0.1585,-0.1695,-0.1706,-0.1756,-0.1838,-0.1875,-0.1952,-0.2028,-0.2081,-0.2143,-0.2203,-0.2266,-0.2279,-0.2297,-0.2306,-0.232,-0.2334,-0.2295,-0.2293,-0.2256,-0.2316,-0.2153,-0.2137,-0.2334,-0.2335,-0.2336,-0.2267,0,-0.1606,-0.1697,-0.1746,-0.1836,-0.1889,-0.1954,-0.2018,-0.2092,-0.2149,-0.2212,-0.2254,-0.2305,-0.2313,-0.2336,-0.2357,-0.2339,-0.2343,-0.2352,-0.2282,-0.228,-0.2125,-0.2136,-0.2339,-0.2267,-0.2267,-0.2267,-0.2267,0,-0.1617,-0.1684,-0.1777,-0.1891,-0.192,-0.198,-0.209,-0.215,-0.2237,-0.2279,-0.234,-0.236,-0.2406,-0.2392,-0.2398,-0.2402,-0.2371,-0.2349,-0.2346,-0.2177,-0.2118,-0.2217,-0.2268,-0.2268,-0.2268,-0.2268,-0.2268,0,-0.1577,-0.17,-0.178,-0.1819,-0.1949,-0.2012,-0.208,-0.2178,-0.2227,-0.2317,-0.2346,-0.2405,-0.2423,-0.2416,-0.2384,-0.2393,-0.2354,-0.2354,-0.2175,-0.2162,-0.2306,-0.2301,-0.235,-0.235,-0.235,-0.235,-0.235,0,-0.1563,-0.163,-0.1777,-0.1821,-0.1912,-0.2009,-0.2098,-0.2172,-0.2258,-0.2286,-0.2374,-0.2381,-0.2433,-0.2416,-0.2385,-0.2265,-0.2352,-0.2175,-0.2136,-0.2328,-0.2327,-0.2305,-0.2301,-0.2347,-0.2348,-0.2349,-0.2349,0,-0.1497,-0.1595,-0.1695,-0.1851,-0.1898,-0.1962,-0.2091,-0.2135,-0.2236,-0.227,-0.2293,-0.2366,-0.233,-0.2342,-0.2309,-0.2237,-0.2157,-0.2095,-0.2276,-0.2249,-0.1962,-0.1962,-0.1882,-0.1876,-0.187,-0.1866,-0.1862,0,-0.1465,-0.1516,-0.1692,-0.174,-0.1814,-0.192,-0.1973,-0.2103,-0.2132,-0.2223,-0.2209,-0.2232,-0.2249,-0.2065,-0.2107,-0.2019,-0.2002,-0.1951,-0.1984,-0.1945,-0.1916,-0.1924,-0.1931,-0.1854,-0.1852,-0.1851,-0.185,0,-0.1401,-0.148,-0.1559,-0.1657,-0.1735,-0.1802,-0.1888,-0.1898,-0.2008,-0.2119,-0.2054,-0.2019,-0.1972,-0.1937,-0.1882,-0.1828,-0.1982,-0.1895,-0.1907,-0.1938,-0.191,-0.1888,-0.1901,-0.1831,-0.1834,-0.1835,-0.1837,0,-0.134,-0.1373,-0.1477,-0.1544,-0.1632,-0.1648,-0.172,-0.1736,-0.178,-0.1886,-0.1849,-0.187,-0.1935,-0.1834,-0.1779,-0.1714,-0.1694,-0.1647,-0.1671,-0.1692,-0.1663,-0.1603,-0.1385,0,0,0,0,0,-0.1265,-0.1284,-0.1345,-0.141,-0.1488,-0.1528,-0.1635,-0.1703,-0.1813,-0.1711,-0.1775,-0.1714,-0.1634,-0.1657,-0.1546,-0.1696,-0.1708,-0.1561,-0.167,-0.1729,-0.175,-0.1735,0,0,0,0,0,0,-0.1207,-0.127,-0.1299,-0.1274,-0.1281,-0.1338,-0.1398,-0.1478,-0.1438,-0.1553,-0.1517,-0.1596,-0.1548,-0.1651,-0.1501,-0.1505,-0.1536,-0.1587,-0.1582,-0.1717,-0.1736,-0.1753,-0.1745,0,0,0,0,0]},{"header":{"parameterUnit":"m.s-1","parameterCategory":2,"la1":30.2991,"la2":30.254,"lo1":-89.0895,"lo2":-89.0444,"dy":0.0017,"dx":0.0017,"nx":28,"ny":28,"refTime":"2024-03-16T21:00:00:Z","depth":"4","parameterNumber":3,"parameterNumberName":"V-component_of_CURRENTS"},"data":[0,0,0,0,0,0,0,0,0,0,0,0,0,0,0,0,0,0,0,0,0,0,0,0,0,0,0,0,0,0,0,0,0,0,0,0,0,0,0,0,0,0,0,0,0,0,0,0,0,0,0,0,0,0,0,0,0,0,-0.0356,-0.0356,0,-0.0304,-0.0304,-0.0303,-0.0273,-0.0273,-0.0273,-0.0273,-0.0177,-0.0175,-0.0172,0,0,0,0,0,0,0,0,0,0,0,0,0,-0.0364,-0.0364,-0.0356,-0.0356,-0.0355,-0.0305,-0.0304,-0.0303,-0.0273,-0.0273,-0.0273,-0.0273,-0.0178,-0.0175,-0.0172,0,0,0,0,0,0,0,0,0,0,0,0,0,-0.0341,-0.0364,-0.0357,-0.0335,-0.0332,-0.0305,-0.0304,-0.0303,-0.0273,-0.0273,-0.0273,-0.0273,-0.0179,-0.0176,-0.0172,-0.0151,0,0,-0.016,-0.0159,0,0,0,0,0,0,0,0,-0.0342,-0.034,-0.0339,-0.0336,-0.0333,-0.0296,-0.0271,-0.025,-0.0273,-0.0295,-0.0273,-0.0273,-0.0213,-0.0207,-0.0197,-0.0146,-0.0142,-0.016,-0.0158,-0.0156,-0.0155,0,0,0,0,0,0,0,-0.0344,-0.0342,-0.0335,-0.0338,-0.0335,-0.0305,-0.0302,-0.0267,-0.0254,-0.0293,-0.0291,-0.0286,-0.0212,-0.0201,-0.0194,-0.0141,-0.016,-0.0157,-0.0155,-0.0153,-0.0077,-0.0077,0,0,0,0,0,0,-0.0355,-0.0344,-0.0337,-0.0334,-0.0338,-0.0305,-0.0302,-0.0307,-0.0255,-0.0248,-0.0286,-0.0285,-0.0207,-0.0199,-0.0191,-0.0166,-0.0156,-0.0153,-0.0151,-0.0077,-0.0077,-0.0077,0,0,0,0,0,0,-0.0356,-0.0355,-0.0339,-0.0337,-0.0333,-0.0306,-0.0312,-0.0306,-0.03,-0.0251,-0.0242,-0.0286,-0.0207,-0.0196,-0.0169,-0.0162,-0.0151,-0.0148,-0.0077,-0.0077,-0.0077,-0.0114,0,0,0,0,0,0,-0.0356,-0.0356,-0.0367,-0.0339,-0.0334,-0.0335,-0.0312,-0.0306,-0.0297,-0.0295,-0.0247,-0.0238,-0.0206,-0.0175,-0.0166,-0.0157,-0.0145,-0.0076,-0.0077,-0.0077,-0.0112,-0.0116,-0.0118,0,0,0,0,0,-0.0357,-0.0374,-0.0368,-0.0367,-0.0349,-0.0335,-0.033,-0.0309,-0.0297,-0.0301,-0.0268,-0.024,-0.0171,-0.0173,-0.0161,-0.0151,-0.0076,-0.0077,-0.0077,-0.0111,-0.0115,-0.0118,0,0,0,0,0,0,-0.0385,-0.0372,-0.0365,-0.0378,-0.0363,-0.0331,-0.0332,-0.0315,-0.0292,-0.029,-0.0242,-0.0231,-0.0207,-0.0177,-0.018,-0.0132,-0.0119,-0.0117,-0.0149,-0.0152,-0.0154,-0.0153,-0.0142,0,0,0,0,0,-0.0396,-0.0407,-0.0385,-0.0397,-0.0391,-0.0363,-0.0355,-0.0341,-0.0315,-0.0305,-0.0271,-0.0234,-0.0199,-0.0176,-0.0148,-0.0117,-0.0076,-0.0104,-0.0107,-0.0109,-0.0102,-0.0031,-0.0026,-0.0079,-0.0079,-0.0079,0,0,-0.0409,-0.0405,-0.041,-0.0403,-0.0389,-0.0384,-0.0358,-0.0354,-0.0344,-0.0297,-0.0278,-0.0248,-0.0197,-0.0169,-0.0154,-0.014,-0.0077,-0.011,-0.0112,-0.0103,-0.003,-0.0025,-0.002,-0.0079,-0.0079,-0.0079,0,0,-0.0437,-0.0438,-0.0452,-0.0443,-0.043,-0.041,-0.0411,-0.0384,-0.0368,-0.0348,-0.0311,-0.0272,-0.0229,-0.0181,-0.0152,-0.0151,-0.0103,-0.015,-0.0149,-0.0081,-0.0075,-0.007,-0.003,-0.0021,-0.0141,-0.0141,-0.0141,0,-0.0454,-0.0468,-0.0453,-0.046,-0.0454,-0.0424,-0.0428,-0.0406,-0.0374,-0.0352,-0.0352,-0.0267,-0.0228,-0.0164,-0.0167,-0.0153,-0.0121,-0.014,-0.0083,-0.0077,-0.007,-0.003,-0.002,-0.0143,-0.0143,-0.0143,-0.0143,0,-0.0485,-0.0494,-0.0502,-0.05,-0.0491,-0.0493,-0.0461,-0.0448,-0.0426,-0.0393,-0.0344,-0.0289,-0.0232,-0.0216,-0.0189,-0.0125,-0.0121,-0.0103,-0.0073,-0.0067,-0.0026,-0.0014,-0.0146,-0.0145,-0.0145,-0.0144,0,0,-0.0521,-0.0524,-0.0527,-0.053,-0.0512,-0.0508,-0.049,-0.0457,-0.0437,-0.0397,-0.0357,-0.029,-0.0256,-0.022,-0.0176,-0.0112,-0.0047,-0.0093,-0.0089,-0.0051,0.0083,0.0057,0.0068,-0.002,-0.0017,-0.0016,0.0087,0,-0.0547,-0.0575,-0.0561,-0.0573,-0.058,-0.0545,-0.0529,-0.0493,-0.0456,-0.0413,-0.0334,-0.0289,-0.0258,-0.0232,-0.0161,-0.0079,-0.0015,-0.0078,0.0071,0.0075,0.0054,0.0082,-0.0008,0.0096,0.0099,0.0101,0.0103,0,-0.0576,-0.059,-0.0616,-0.0607,-0.0605,-0.0608,-0.0572,-0.0553,-0.0479,-0.0446,-0.0376,-0.032,-0.0222,-0.0202,-0.0039,-0.0085,-0.0004,0.0062,0.0068,0.007,0.0072,0.0095,0.0125,0.0123,0.0122,0.012,0.0119,0,-0.061,-0.0622,-0.0648,-0.0648,-0.0635,-0.0636,-0.0624,-0.0568,-0.0546,-0.0467,-0.044,-0.032,-0.0262,-0.0139,-0.0011,-0.002,0.0161,0.017,0.0228,0.0226,0.0234,0.0228,0.0297,0.0297,0.0296,0.0296,0.0296,0,-0.0638,-0.0656,-0.0672,-0.0686,-0.0708,-0.068,-0.0681,-0.0648,-0.0592,-0.0559,-0.0466,-0.0408,-0.0242,-0.0123,-0.0008,0.0139,0.0169,0.0237,0.0261,0.0211,0.0201,0.0241,0.0234,0.03,0.0299,0.0298,0.0298,0,-0.0667,-0.068,-0.0712,-0.0722,-0.073,-0.0748,-0.0739,-0.0727,-0.0674,-0.0628,-0.0604,-0.0462,-0.0308,-0.015,0.0057,0.0136,0.0283,0.033,0.0249,0.0264,0.0299,0.0288,0.0407,0.0407,0.0408,0.0408,0.0408,0,-0.0683,-0.0707,-0.0753,-0.0782,-0.0794,-0.0815,-0.0822,-0.0779,-0.0755,-0.0656,-0.0626,-0.0478,-0.0371,-0.0099,0.0059,0.0276,0.0305,0.037,0.0354,0.0304,0.0316,0.0304,0.0293,0.0408,0.0408,0.0408,0.0408,0,-0.0709,-0.0737,-0.0767,-0.083,-0.0862,-0.0884,-0.0885,-0.0868,-0.0799,-0.0762,-0.0619,-0.0471,-0.0298,-0.0093,0.0072,0.0227,0.0322,0.0373,0.0373,0.0359,0.0307,0.0315,0.0304,0.0409,0.0409,0.0409,0.0409,0,-0.073,-0.0766,-0.0815,-0.0861,-0.0912,-0.0927,-0.0923,-0.0866,-0.0828,-0.0703,-0.0658,-0.0467,-0.0344,-0.0117,0.0035,0.018,0.0217,0.0258,0.0266,0.0267,0.0189,0.0099,0.017,0,0,0,0,0,-0.074,-0.078,-0.0835,-0.0886,-0.0936,-0.0957,-0.0947,-0.0923,-0.0858,-0.076,-0.07,-0.0533,-0.0282,-0.0165,-0.0021,0.0018,0.022,0.0187,0.0265,0.0412,0.0411,0.034,0,0,0,0,0,0,-0.0746,-0.0808,-0.0835,-0.0893,-0.0928,-0.0969,-0.0962,-0.0919,-0.084,-0.0759,-0.0615,-0.0524,-0.0276,-0.0371,-0.0029,0.0015,0.008,0.0311,0.0314,0.0412,0.0411,0.0411,0.0338,0,0,0,0,0]}]]